WGS F2 (USA 204)

Last updated on Jan. 26, 2020, 4:40 a.m. UTC

1 34713U 09017A   20025.56822517  .00000040  00000-0  00000-0 0  9994
2 34713   0.0134  59.8989 0000246  45.6314 283.5475  1.00270805 22204
UTC
Height (km)
Latitude
Longitude
Inclination
Orbital Period
UTC large
Height (km)
Speed (km/s)
/
Latitude / Longitude
Inclination (degrees)
Orbital Period (minutes)
Azimuth
Elevation
Range (km)
Doppler Factor
iOS Compass Heading
iOS Angle

Next 30 passes for location: Hong Kong

Rise time Rise Azimuth (degrees) Set time Set Azimuth (degrees) Duration Max altitude (degrees)

No matching passes for this satellites